Wind_Speed
12 12 13 14 15 15 16 16 17 17 18 18 18 18 19 20 21 21 22 23 24 25 25 26 27 28 30 32 34 36 37 38 39 39 41 41 41 42 42 41 41 41 40 39 39 38 36 33 30 29 28 28 26 25 23 20 20 21 19 16 15 14 14 14 12 11 11 10 10 8 8 9 10 9 7 8 10 15 18 21 23 24 25 25 26 27 25 21
12 13 14 15 15 16 16 17 18 18 18 19 20 20 20 21 21 22 23 23 25 25 26 27 27 28 29 31 33 35 37 38 39 40 41 42 42 43 43 42 42 42 42 41 40 39 37 34 32 30 30 29 27 26 25 22 22 21 19 18 19 18 15 13 11 11 13 11 10 9 8 9 10 8 6 8 8 14 18 19 21 22 23 25 26 27 25 22
13 14 15 15 16 17 17 18 18 19 20 20 20 21 22 22 23 23 23 24 25 26 27 28 29 29 30 31 33 35 37 39 40 42 42 42 42 44 44 43 43 43 44 43 42 40 38 36 34 33 32 30 27 27 28 25 23 20 18 19 21 21 16 13 11 12 14 13 10 9 9 8 7 6 7 9 8 14 17 17 20 21 22 24 25 26 25 23
15 16 17 18 18 19 20 20 21 21 22 22 23 23 23 24 24 24 25 25 26 27 28 29 30 31 31 32 33 34 37 38 41 43 42 42 43 44 44 44 44 45 45 44 43 41 40 39 37 35 33 32 28 29 31 28 25 24 20 20 21 20 16 13 12 12 13 12 10 9 8 7 6 6 7 9 9 13 15 15 18 19 21 23 24 25 25 23
18 19 20 21 22 22 23 23 24 25 25 26 26 27 27 27 27 27 27 27 28 28 29 30 30 31 32 33 33 35 36 38 42 43 43 43 43 45 45 45 45 46 46 45 44 43 42 41 40 38 36 32 29 31 32 28 27 28 24 22 19 16 15 13 12 12 13 15 12 10 9 8 7 6 7 8 9 12 13 13 16 18 19 21 23 24 24 23
20 21 22 23 24 24 25 25 26 27 28 28 29 30 30 31 30 31 30 30 30 30 31 31 32 33 33 35 35 36 36 39 43 43 43 44 44 45 47 46 47 47 47 46 45 44 44 43 42 41 39 36 32 33 33 29 28 30 26 22 18 14 13 12 12 14 16 17 12 10 10 9 9 7 7 8 8 9 10 11 14 16 18 19 21 22 23 23
21 22 23 24 25 26 27 27 28 28 29 30 31 31 32 33 33 34 34 34 34 34 34 34 35 35 35 36 36 37 36 39 44 42 43 45 45 47 48 47 48 48 48 47 46 45 45 45 44 43 42 39 34 32 33 30 29 30 26 24 21 16 13 10 12 16 15 14 12 12 12 11 10 9 8 8 7 8 9 10 12 15 17 18 20 21 22 23
23 24 25 26 27 28 29 29 30 30 31 31 32 33 34 35 35 36 37 38 38 39 38 37 38 37 38 38 37 39 37 39 44 44 44 45 46 48 49 48 49 49 49 48 47 47 46 47 47 46 45 40 34 34 36 31 29 31 28 25 24 19 15 12 15 19 14 12 13 13 15 13 10 11 10 8 7 7 8 8 10 13 16 17 18 20 21 22
25 26 27 28 29 30 31 32 32 33 34 34 35 35 36 37 38 39 39 40 41 42 42 42 41 41 41 41 40 40 36 41 46 44 45 46 47 50 50 49 49 50 50 49 49 49 49 49 49 48 48 43 38 38 38 33 29 31 28 23 24 22 20 18 19 21 18 18 17 13 16 15 12 13 11 9 8 7 7 6 8 12 14 16 16 18 19 21
27 27 28 30 31 32 33 34 35 35 36 37 38 38 39 40 40 41 42 43 44 45 46 46 45 44 44 43 44 41 37 45 48 44 46 47 48 51 51 51 51 51 51 51 51 51 51 51 51 51 50 47 43 39 39 35 28 26 25 24 27 27 26 25 24 22 21 23 20 16 16 15 13 14 12 11 9 7 6 5 6 9 12 14 15 16 17 19
28 29 30 31 32 33 34 36 36 38 39 40 41 41 42 42 43 44 45 46 48 49 49 50 49 48 47 46 47 42 39 49 50 46 48 48 49 52 52 52 52 52 53 53 53 53 53 53 54 54 53 50 46 42 40 37 32 28 25 27 27 25 27 28 27 25 24 26 23 19 17 14 13 13 12 11 9 7 5 5 5 7 9 13 13 14 16 17
30 31 32 33 34 35 36 38 39 40 41 42 43 44 45 46 46 47 47 49 50 51 52 52 52 51 50 50 48 43 46 54 52 49 50 49 51 53 53 54 54 54 54 54 54 55 55 55 56 56 56 54 49 46 43 39 36 34 30 28 25 21 26 30 30 30 28 27 25 22 19 15 14 13 12 11 9 7 5 6 5 4 6 10 12 12 14 16
32 33 34 35 36 37 39 40 41 42 43 45 46 47 49 49 50 50 51 52 52 52 53 54 54 54 53 51 49 48 53 57 54 51 51 51 52 53 54 56 56 56 55 55 56 57 57 58 59 58 58 58 52 48 47 44 40 39 36 34 30 24 26 31 32 31 28 26 24 23 20 16 14 14 13 11 10 8 7 7 6 3 4 7 10 11 13 15
33 34 36 37 38 39 41 42 43 45 46 47 49 51 52 53 54 54 54 53 52 51 52 54 55 55 55 53 52 53 56 58 56 54 53 53 53 54 55 56 58 58 57 57 58 59 60 60 61 61 61 61 56 51 50 48 46 42 37 36 35 28 26 30 30 30 29 26 23 22 21 18 17 16 15 13 13 11 10 9 7 5 3 5 8 9 11 13
35 36 37 39 40 41 43 44 45 47 49 50 52 54 55 56 57 57 55 53 51 50 50 53 54 55 55 55 55 56 58 60 59 56 56 56 56 55 55 57 59 59 59 58 59 61 63 62 63 64 64 63 59 54 51 50 50 46 37 36 38 31 29 31 29 30 32 30 26 23 20 19 18 17 16 16 15 14 12 11 9 6 3 4 7 7 8 12
37 38 39 40 41 43 44 46 47 49 51 53 55 56 58 59 59 57 54 51 49 48 49 51 53 55 55 56 57 57 59 62 61 59 58 58 58 57 56 58 60 61 61 60 61 63 64 64 65 65 65 64 60 57 56 52 50 49 41 36 37 34 33 35 32 30 31 31 30 27 23 20 19 19 17 16 15 14 12 11 10 7 4 3 5 5 6 9
38 39 40 41 43 44 46 48 49 51 53 55 57 59 60 60 59 55 52 49 47 46 47 49 51 53 55 57 58 58 60 62 63 63 61 60 60 59 59 59 60 62 62 62 62 64 65 64 65 65 65 66 63 60 60 57 53 52 47 41 39 35 34 37 35 33 32 31 31 30 27 24 23 21 18 18 16 13 12 12 11 9 5 3 5 4 4 7
39 40 41 42 44 45 47 49 51 53 55 57 59 60 61 61 58 54 51 48 46 44 45 46 49 52 55 57 58 60 61 63 66 66 64 62 62 61 61 60 61 63 63 64 64 65 65 66 66 66 66 67 66 64 65 62 56 55 53 48 42 37 34 36 37 34 33 33 31 30 28 26 24 21 18 19 17 14 14 15 14 12 8 6 6 5 3 5
40 41 41 43 45 47 49 51 52 54 56 58 60 61 61 60 58 54 51 48 44 42 42 44 47 51 54 56 58 60 63 66 68 68 67 65 64 64 64 62 62 64 65 65 66 66 67 68 68 67 68 69 67 66 67 65 60 57 56 53 48 42 36 34 36 36 34 31 29 27 25 24 23 21 20 19 17 16 17 18 17 14 11 9 8 7 4 3
40 40 42 43 46 48 50 52 54 55 57 59 61 62 61 60 59 56 52 47 43 41 39 41 45 49 53 56 59 61 63 66 69 69 69 68 67 67 65 64 64 64 65 66 67 67 68 69 69 69 71 72 71 70 69 68 64 60 58 55 52 48 40 32 31 35 36 33 30 28 24 22 22 22 22 22 19 19 19 20 20 17 14 11 9 9 6 3
39 41 42 44 47 49 51 53 54 56 58 60 61 62 62 61 60 56 52 47 43 40 38 39 43 48 53 57 60 62 63 66 68 70 71 70 70 69 68 67 66 65 66 68 68 68 69 69 70 72 73 74 74 73 71 71 69 65 61 58 55 53 47 36 28 29 34 33 29 28 26 24 23 22 22 22 20 21 22 23 22 19 16 13 11 10 7 5
39 41 43 46 48 50 51 53 55 57 59 61 62 63 64 62 60 55 51 47 43 39 36 36 41 47 53 58 61 63 64 67 69 71 72 72 72 71 70 69 67 66 67 68 69 69 70 70 72 75 75 76 76 75 74 74 72 69 65 61 58 57 54 44 33 27 27 27 26 28 28 27 26 25 23 22 20 22 23 23 23 21 18 16 14 11 10 8
39 42 45 47 49 50 52 54 57 59 61 62 64 64 64 62 58 54 49 46 42 38 34 34 38 45 52 58 62 65 66 68 69 71 73 74 74 73 72 71 69 68 68 68 69 71 72 72 75 77 77 78 79 78 76 74 73 71 69 65 59 58 57 51 43 36 29 28 30 32 32 30 28 29 27 25 24 25 24 23 23 23 21 19 17 13 12 10
40 43 46 48 49 50 53 56 59 61 62 64 65 64 62 59 56 53 49 45 40 35 32 32 35 42 49 56 62 67 68 70 71 72 74 75 75 74 73 73 71 70 69 68 70 72 74 75 77 79 79 79 81 80 76 75 75 73 71 70 63 58 58 53 46 44 40 37 38 37 35 33 31 31 29 28 28 28 25 23 23 24 24 21 18 15 13 12
41 44 47 48 49 51 55 58 60 62 64 65 64 62 59 57 54 52 48 44 38 33 30 30 32 38 45 53 61 67 71 73 73 73 75 76 76 76 75 75 73 72 70 69 71 73 75 77 79 80 79 79 82 81 77 77 78 75 73 74 68 62 59 53 46 45 43 40 43 43 39 37 37 35 31 29 29 29 25 24 24 25 26 23 20 17 16 15
43 45 47 48 50 53 57 59 62 63 64 64 62 58 56 55 53 51 47 42 35 30 28 28 30 34 41 49 58 66 72 74 74 75 77 76 76 77 77 76 75 75 73 72 72 74 77 80 80 79 79 80 82 82 80 79 79 77 77 75 70 65 61 55 48 45 42 39 41 45 40 36 37 36 33 31 30 28 25 27 27 26 26 25 22 20 18 17
44 46 47 48 51 55 58 60 62 63 63 62 58 55 54 54 53 50 46 38 31 27 26 25 27 31 36 44 53 62 70 74 76 78 78 78 78 79 78 78 77 77 74 73 72 73 77 80 79 79 80 80 79 81 82 81 80 81 80 76 73 69 63 59 54 48 45 41 40 43 40 34 33 34 34 33 32 28 26 28 29 26 24 23 22 22 21 19
45 46 47 50 53 56 59 61 62 62 62 59 55 53 53 54 53 50 43 34 27 24 24 24 25 27 32 39 48 58 67 75 80 80 79 79 80 81 81 81 80 78 75 73 72 74 78 80 80 81 80 78 78 82 83 82 82 83 81 78 76 72 66 62 60 54 48 45 43 44 40 35 33 33 34 34 33 32 30 29 30 29 25 22 22 24 24 22
45 46 48 52 55 57 60 61 62 61 60 56 53 52 54 54 53 49 40 31 24 22 22 22 23 24 28 34 43 53 64 74 79 80 81 81 80 82 83 82 80 78 77 76 75 78 81 81 82 81 79 79 81 82 83 84 84 84 82 80 77 75 70 64 64 60 53 49 48 49 44 39 38 37 37 38 37 36 33 30 30 31 30 29 27 27 27 24
45 47 50 53 56 58 60 61 61 60 58 55 53 53 55 54 52 47 38 29 23 20 20 21 20 22 25 31 39 49 59 69 77 82 83 83 82 82 82 81 80 80 79 78 78 80 81 79 79 79 78 80 81 82 83 85 85 84 83 80 77 76 72 66 66 63 56 51 51 53 49 43 42 42 41 41 40 39 38 35 33 35 36 34 31 29 29 28
46 48 51 54 57 59 61 62 61 60 57 54 54 55 56 54 50 44 36 28 22 19 20 19 19 20 22 27 35 44 54 65 75 82 85 85 85 84 82 82 83 82 79 79 81 79 76 73 73 77 78 79 81 82 81 82 86 87 83 80 78 79 76 68 65 65 61 55 52 52 51 45 43 44 44 43 41 41 41 41 41 41 39 35 33 32 31 30
47 50 52 55 58 60 61 62 62 60 57 56 56 57 56 52 47 40 32 26 22 18 18 18 18 18 20 24 31 40 50 61 72 81 85 86 87 85 84 84 83 82 81 82 83 78 74 73 73 76 78 79 82 81 79 82 85 86 82 80 80 81 79 72 65 64 63 61 58 55 53 49 46 44 44 45 43 43 43 43 45 45 41 36 32 31 31 31
48 51 53 56 58 60 62 63 62 61 58 58 59 59 55 50 45 37 27 23 21 18 17 17 17 17 18 22 28 36 47 57 68 78 84 87 87 85 86 85 84 84 84 85 84 80 78 75 73 76 77 79 82 81 82 84 83 82 81 81 82 81 80 77 69 63 62 61 61 60 56 53 51 48 45 44 44 44 44 44 45 44 41 37 33 31 31 33
49 51 54 57 59 61 62 63 63 62 60 60 62 61 55 48 41 34 25 19 19 18 17 16 16 16 17 19 25 33 43 53 63 74 82 87 87 86 87 87 86 87 87 86 84 83 81 77 75 79 80 81 83 83 85 85 81 82 85 85 85 83 82 81 75 68 64 62 62 61 58 53 53 54 50 45 43 42 42 42 41 41 39 37 34 31 32 34
51 53 56 58 60 61 63 64 64 63 61 62 63 61 54 46 38 31 23 18 18 17 16 16 16 16 16 17 22 31 39 48 58 69 79 86 88 90 90 89 88 90 89 87 86 84 82 78 78 81 82 83 85 86 86 84 81 82 86 88 88 86 85 84 81 75 68 64 65 63 59 54 52 56 56 49 44 43 42 41 40 38 38 39 37 33 32 34
52 54 57 59 60 62 64 65 65 64 63 64 64 59 52 45 37 29 22 17 16 17 17 17 16 16 15 16 21 28 35 44 54 64 74 83 89 92 93 91 91 91 90 89 88 87 85 84 84 85 83 83 86 86 85 84 82 83 85 89 89 88 87 86 85 82 73 66 67 67 63 58 53 54 58 54 47 44 43 43 42 40 40 41 40 37 35 36
53 55 58 60 61 63 65 66 65 65 65 66 64 57 49 43 35 26 21 16 15 17 18 17 16 15 14 16 19 24 32 41 50 60 71 81 89 92 93 93 93 92 90 89 89 89 89 89 88 86 84 84 84 85 84 83 83 83 85 89 91 90 89 88 87 87 80 72 70 69 66 60 54 54 58 57 50 46 45 44 44 44 43 41 38 36 35 36
54 57 59 61 63 65 66 67 66 65 66 67 64 56 47 41 32 24 19 15 15 18 18 18 16 15 14 15 18 22 29 37 46 56 68 78 86 91 93 94 93 90 88 87 87 87 87 86 84 83 82 82 80 81 83 83 83 83 85 88 90 91 90 89 89 89 86 79 74 72 68 61 55 54 57 58 55 51 49 46 45 45 45 42 40 38 37 37
56 58 60 62 64 66 67 68 67 66 67 67 64 55 46 39 31 23 17 15 16 19 20 19 18 16 14 14 17 21 26 33 41 50 62 72 81 89 93 95 93 90 88 89 89 88 87 86 84 83 81 78 76 78 81 82 83 85 87 86 86 89 91 89 89 91 91 86 80 78 73 64 59 57 56 57 57 55 52 49 45 44 45 44 43 42 40 40
58 60 61 63 65 67 69 69 68 68 68 67 62 53 44 37 30 23 17 14 16 19 21 21 20 18 16 15 17 20 24 30 37 45 56 66 77 87 92 94 92 90 89 90 91 90 89 88 86 84 82 78 75 78 81 82 83 86 88 86 85 88 91 90 90 91 92 91 87 84 79 71 64 62 58 56 57 57 55 52 47 43 44 45 45 45 44 44
59 61 62 64 66 68 70 70 70 69 70 68 62 52 42 35 29 22 16 14 15 18 21 23 22 20 18 16 17 19 24 29 35 42 51 61 71 81 87 90 91 90 90 91 92 92 90 88 87 86 84 80 78 79 81 82 83 86 88 88 86 88 91 92 93 93 92 93 91 89 86 81 74 68 62 58 60 60 57 55 51 45 43 47 49 48 47 47
61 63 64 65 67 69 71 72 72 71 71 69 62 51 41 34 29 23 17 14 14 18 21 23 23 22 20 18 19 20 23 28 33 39 46 54 63 71 79 85 90 92 94 95 95 97 94 89 88 87 85 84 82 83 83 83 83 86 88 89 88 88 90 92 95 96 95 95 95 94 91 89 86 78 69 61 60 62 62 59 55 48 43 46 51 50 48 47
62 64 65 66 67 70 72 74 74 74 73 70 61 50 40 34 29 24 18 15 14 17 21 23 24 23 22 21 21 22 22 24 28 33 40 46 53 62 70 79 87 93 96 97 96 96 92 88 87 87 85 86 85 83 83 83 83 86 89 89 88 89 90 91 93 95 98 99 99 98 96 94 92 87 79 69 62 61 64 64 61 54 47 45 49 51 50 49
63 65 66 67 68 70 73 74 75 76 74 69 60 48 39 34 29 24 19 16 15 17 20 22 24 24 23 24 24 23 22 21 23 27 32 38 45 55 65 74 83 91 95 96 94 93 91 89 88 87 86 87 86 84 84 86 85 86 88 88 87 88 90 91 91 93 97 99 99 100 100 97 94 90 84 80 73 65 61 62 64 61 54 48 48 49 51 53
64 65 66 68 69 71 73 75 76 77 74 68 58 46 37 33 29 24 20 16 15 18 19 21 24 25 26 27 27 26 25 24 23 24 27 31 38 47 58 68 78 87 92 95 95 94 94 92 90 88 88 88 89 89 89 88 85 83 84 84 84 87 91 92 91 91 94 95 98 101 100 96 95 91 85 83 81 73 63 60 64 66 62 55 49 45 48 53
66 67 67 68 70 72 74 75 77 77 75 68 56 44 36 33 29 25 21 17 16 18 20 21 24 26 27 28 28 29 29 27 25 24 26 29 33 40 49 59 69 79 88 94 96 96 96 94 92 91 91 90 90 91 91 88 85 83 83 83 86 89 91 92 92 92 92 93 97 102 102 98 94 91 89 86 83 78 71 64 63 66 67 65 59 51 48 50
67 68 68 70 71 74 76 77 78 77 74 67 54 42 36 33 29 26 22 18 17 18 20 22 24 25 26 27 27 29 29 28 27 26 27 28 31 36 43 52 60 70 81 90 96 98 97 96 96 95 93 92 92 92 92 89 88 86 84 85 87 88 88 89 91 93 94 95 98 100 101 100 96 92 91 88 83 81 80 75 68 67 68 67 63 58 56 54
67 68 70 71 73 75 77 78 79 78 74 65 52 41 36 33 30 27 23 19 18 18 20 22 23 25 26 26 27 28 28 28 27 27 27 28 31 34 39 46 53 61 72 83 92 97 97 98 99 98 97 95 94 93 93 92 91 89 87 88 90 89 89 92 95 97 97 97 99 99 98 98 98 94 92 89 84 82 84 81 75 70 68 67 61 57 58 57
66 68 70 72 74 75 77 78 79 79 74 64 50 41 36 33 30 27 23 20 18 19 21 22 24 25 26 26 27 28 27 27 27 28 28 29 31 33 36 41 47 54 65 76 86 92 96 98 100 100 100 98 94 93 93 93 93 92 91 91 92 92 92 95 99 99 99 99 99 99 97 95 94 93 92 91 88 85 85 80 69 60 60 64 65 63 62 58
66 68 70 72 74 76 77 77 78 77 73 63 51 41 36 32 29 27 23 20 19 20 21 23 25 25 26 26 26 27 27 27 27 28 29 30 30 32 34 37 42 48 57 67 76 83 91 97 100 101 101 99 96 95 95 94 94 94 93 93 93 93 93 94 95 95 95 96 96 94 93 90 90 90 91 93 90 86 87 82 70 55 47 51 56 59 64 61
67 69 71 73 75 76 77 78 78 76 71 62 51 41 35 32 28 25 23 20 19 20 22 24 26 26 27 27 27 27 27 27 28 28 29 29 30 32 33 36 41 45 51 59 66 74 85 93 98 101 102 101 99 99 98 97 97 97 98 97 96 96 95 92 91 89 89 89 90 90 89 89 90 89 87 91 91 89 88 84 78 67 55 50 49 50 61 67
67 70 71 74 76 78 78 78 77 75 70 61 50 41 34 30 27 24 22 21 20 21 22 25 26 27 28 28 28 28 27 27 28 29 29 29 30 31 32 35 39 42 47 53 60 68 77 86 93 99 102 103 102 101 101 100 100 99 99 99 98 97 95 92 89 88 88 88 89 91 91 92 93 91 87 87 89 90 90 88 86 83 75 67 60 54 61 69
Wind_Direction
299 299 298 298 297 296 295 293 292 291 289 286 283 278 274 271 268 264 261 258 255 252 248 244 241 237 233 230 228 227 224 223 221 220 219 216 215 215 214 213 212 211 210 208 207 205 203 200 199 199 200 200 199 200 204 206 208 206 201 205 215 216 214 211 212 224 227 233 242 259 274 267 288 310 326 341 3 2 1 8 6 5 12 15 13 9 11 14
295 295 294 294 292 292 291 290 290 289 288 287 285 282 279 275 272 269 265 261 258 255 252 248 244 240 236 232 229 227 225 223 221 219 218 216 215 214 213 212 212 211 209 208 206 204 202 199 197 198 199 200 200 203 205 204 205 207 206 213 220 217 221 225 220 220 227 237 241 254 270 270 286 287 300 324 350 2 4 9 3 1 10 15 14 10 11 15
295 295 296 296 295 294 292 292 291 290 289 287 285 283 281 277 274 271 268 265 261 258 254 251 248 243 239 235 230 227 225 224 222 219 217 215 215 214 212 211 211 211 209 207 205 203 201 198 196 196 197 198 200 205 207 206 201 199 208 220 221 219 226 232 230 231 236 239 232 245 259 266 284 271 295 319 335 360 6 8 2 360 9 14 15 11 11 15
305 305 305 305 305 303 301 300 297 296 294 292 290 287 284 281 278 273 270 267 264 261 257 254 250 246 243 238 233 229 226 224 223 220 216 214 214 214 212 210 210 210 209 207 205 202 200 197 195 194 195 196 202 206 207 208 201 194 205 217 217 222 229 229 230 233 238 238 231 238 246 257 281 269 295 323 333 356 4 5 3 0 8 13 14 13 11 16
311 310 310 308 307 306 305 304 302 300 298 296 294 291 289 286 283 279 275 270 266 263 259 256 253 249 245 241 237 232 228 225 223 220 217 214 213 213 212 209 209 209 208 206 204 201 199 196 193 193 192 194 204 210 206 209 207 201 210 215 213 226 232 226 226 229 240 247 243 239 238 250 275 275 291 321 338 353 358 1 4 1 6 12 13 13 12 16
307 306 305 304 303 302 301 300 299 298 296 295 293 291 290 288 287 284 281 276 271 266 261 257 254 250 247 242 239 235 230 228 223 219 218 215 212 213 212 210 208 208 207 205 204 201 199 196 193 192 191 192 201 209 205 208 210 207 214 214 207 221 230 229 228 229 244 249 241 232 237 251 264 271 285 309 335 349 352 358 5 2 6 12 12 13 13 17
302 301 301 301 300 299 298 297 295 294 292 291 289 288 287 286 285 284 282 280 276 271 264 259 254 251 248 243 240 237 233 231 225 219 219 216 213 213 211 210 209 208 207 205 203 200 198 196 193 192 192 193 198 206 205 208 211 208 214 213 206 210 218 226 227 230 241 244 233 227 235 248 257 263 276 295 321 335 344 354 5 3 4 11 11 12 15 18
300 300 301 300 299 298 296 295 293 292 291 290 288 287 285 284 283 281 281 279 277 274 268 262 256 250 247 243 240 237 233 235 229 220 218 216 214 213 210 210 209 208 206 204 202 200 198 196 193 192 193 193 195 204 204 207 210 207 209 211 210 211 216 221 220 226 229 216 215 228 239 244 247 251 260 280 298 317 333 348 4 3 2 10 10 10 15 19
301 300 300 300 299 298 296 295 293 292 291 290 289 287 286 284 282 281 280 278 277 274 270 265 258 252 246 242 239 235 232 236 231 221 219 216 215 213 210 209 208 207 206 203 201 199 197 195 193 192 192 191 195 201 200 203 208 203 203 207 212 218 224 223 217 220 219 207 201 208 231 236 236 242 249 268 283 301 318 336 359 2 360 7 10 8 14 20
301 300 300 300 299 298 297 296 294 293 292 292 291 290 288 287 285 283 281 280 277 275 271 266 260 253 247 242 238 233 231 236 233 225 222 216 215 214 210 208 206 206 205 202 201 199 197 195 193 192 192 192 195 199 196 199 201 195 196 204 212 220 224 223 221 221 217 214 210 207 226 232 231 237 242 257 271 285 300 316 345 359 359 3 8 7 11 20
300 300 300 300 300 300 299 297 296 295 294 294 293 292 291 289 287 285 284 282 279 276 271 267 261 255 248 242 237 231 229 235 231 226 224 216 215 215 210 208 205 205 205 202 200 198 197 196 194 192 192 192 195 198 194 194 195 188 190 200 206 218 226 223 223 224 219 220 221 222 237 240 228 231 235 246 261 269 276 285 319 353 2 1 4 5 7 16
301 301 301 301 301 301 301 300 298 297 296 296 295 295 294 292 290 288 287 284 281 276 271 266 261 255 248 242 236 229 228 232 229 225 225 218 214 215 211 208 205 204 204 202 200 198 197 196 194 193 192 193 195 197 194 193 193 186 186 190 190 204 221 221 219 221 222 224 224 226 240 249 235 228 230 239 253 254 252 266 291 337 1 359 358 1 4 10
301 302 302 302 302 302 302 302 301 299 298 297 297 297 296 295 294 292 290 287 282 276 270 265 260 255 249 241 235 229 227 230 228 224 224 220 216 214 212 209 205 203 203 202 201 199 197 196 195 193 193 194 195 196 196 194 191 186 185 183 181 193 207 211 216 218 219 223 226 228 235 247 242 231 230 237 248 242 238 256 268 296 350 357 352 356 0 5
302 302 303 303 304 303 304 303 302 301 300 299 299 299 299 298 297 295 293 288 282 275 268 263 258 253 248 241 234 230 227 228 227 223 222 220 217 215 212 210 206 203 202 201 201 199 197 196 195 193 193 194 195 195 196 197 195 193 191 188 191 199 199 202 213 217 219 226 230 232 235 242 246 240 233 237 246 237 232 248 254 263 310 348 345 349 356 2
303 304 304 304 304 304 305 304 304 303 302 301 301 301 301 300 300 298 295 289 282 274 266 260 256 251 246 240 234 229 226 226 226 222 221 219 218 215 212 210 208 203 202 201 201 201 198 196 195 194 193 193 194 195 197 198 199 198 195 193 196 200 199 202 211 217 223 229 229 233 237 238 241 240 237 241 244 232 228 242 245 250 275 330 337 342 351 360
305 305 305 305 305 305 305 305 305 304 303 303 303 303 303 303 302 300 296 290 282 274 266 259 253 249 244 239 233 228 225 225 224 222 220 218 217 216 211 210 209 205 202 200 201 202 200 196 195 195 193 193 194 197 199 199 199 200 195 190 192 196 201 204 208 214 220 225 226 229 233 233 236 240 242 244 238 227 228 237 234 235 247 304 319 324 342 356
306 306 306 306 306 306 306 306 305 305 305 305 305 305 305 305 304 302 298 292 284 275 266 257 251 246 241 237 231 227 224 223 222 221 219 217 216 216 212 209 209 206 202 200 201 202 201 197 196 196 194 193 193 196 200 199 199 201 198 190 190 196 203 206 209 215 219 224 228 231 233 238 244 243 245 245 237 230 234 234 226 225 228 266 293 293 327 352
307 307 307 307 307 307 307 307 306 306 306 306 307 307 307 308 307 304 301 295 287 277 266 256 248 243 238 234 230 225 222 220 219 219 217 216 215 215 213 210 208 207 204 201 201 201 201 198 196 196 195 194 194 196 198 199 200 202 200 197 196 198 205 212 216 220 223 226 230 234 236 240 243 240 241 243 240 240 241 234 224 220 223 240 261 261 285 340
308 308 308 308 308 308 308 308 308 308 308 309 309 310 310 310 310 308 304 298 290 279 267 256 246 240 236 233 229 225 221 219 217 216 215 214 213 214 213 210 208 207 205 202 201 200 201 200 196 195 196 195 195 197 198 199 200 202 201 200 202 201 204 213 217 218 221 222 223 228 232 235 236 238 239 240 246 252 244 230 221 219 221 229 243 239 240 313
308 309 309 309 310 309 309 309 310 310 310 311 312 313 313 313 312 310 307 301 292 282 270 256 245 237 233 230 226 223 220 218 217 215 214 213 212 212 212 211 209 207 205 204 201 199 201 201 197 196 197 196 196 198 199 199 201 202 200 200 202 199 198 203 207 213 218 220 221 223 227 233 239 244 243 240 249 256 245 227 219 221 220 222 228 226 225 275
309 309 310 310 311 311 311 311 312 313 314 314 315 315 315 315 314 312 309 303 296 286 272 257 244 235 230 227 224 222 219 218 216 214 212 212 211 211 211 210 209 207 206 204 202 199 200 201 198 197 197 196 197 198 199 199 202 204 201 200 201 198 198 198 196 205 215 220 223 225 227 231 236 239 235 235 244 249 241 228 220 221 219 217 217 218 227 254
309 310 311 312 312 312 312 314 315 316 317 317 317 317 316 315 314 313 310 305 299 289 274 257 243 233 228 224 222 220 218 216 214 213 211 211 210 210 210 210 209 207 206 205 202 200 200 201 200 199 197 197 198 198 199 199 201 203 202 203 204 202 202 201 196 197 204 210 215 220 219 215 219 222 220 225 232 233 232 228 223 219 215 213 212 219 232 246
310 311 312 313 313 314 315 317 318 319 319 319 318 318 317 315 314 313 311 308 302 291 275 258 243 233 226 222 220 218 216 215 213 212 211 210 210 209 209 209 208 208 206 204 203 201 199 200 202 200 198 197 198 198 199 199 202 203 203 204 205 204 204 204 203 200 198 202 207 212 212 208 213 219 221 225 222 221 230 234 229 220 213 213 215 222 232 238
312 313 314 314 315 316 319 320 321 321 320 320 319 318 317 315 315 315 314 311 304 291 275 259 244 234 226 221 218 216 214 213 212 211 210 209 209 208 208 208 208 207 206 204 203 202 200 201 202 201 198 198 198 199 198 199 202 203 204 205 205 204 203 203 203 203 204 209 211 212 214 216 221 225 226 226 219 219 231 238 233 221 212 214 218 222 229 233
314 315 316 316 318 320 322 323 322 321 321 321 319 318 317 316 316 317 316 313 305 291 276 260 246 235 226 220 217 214 212 211 210 209 209 208 208 207 207 207 207 207 206 204 203 203 202 202 203 201 199 199 199 199 198 200 202 203 205 205 205 204 202 201 198 199 205 211 215 218 219 221 224 224 224 223 218 220 228 232 233 224 212 212 218 220 224 228
316 317 318 319 322 324 325 324 323 322 322 321 320 320 319 318 318 319 318 314 305 290 276 262 247 235 227 221 216 213 211 209 208 208 208 207 206 207 207 206 206 206 205 204 203 203 203 204 203 201 200 201 200 198 199 200 201 204 205 204 205 204 203 201 195 196 200 201 210 217 216 216 218 217 218 221 222 223 225 226 230 228 215 212 217 218 222 225
319 320 321 323 326 326 325 324 323 323 322 322 322 322 321 320 320 321 320 314 304 291 277 264 249 237 228 221 216 212 210 208 207 207 206 205 205 205 206 206 206 206 206 205 203 204 205 204 202 202 201 202 201 200 200 201 201 203 205 203 204 205 203 201 198 198 199 197 202 207 207 207 207 210 215 220 224 225 226 228 230 228 217 215 219 221 223 223
322 323 325 328 329 327 326 325 324 324 324 324 324 324 324 323 322 323 322 313 301 290 278 266 251 238 228 222 216 212 208 206 206 206 205 205 204 204 205 205 205 205 205 204 203 205 206 205 203 202 201 201 202 202 202 202 202 204 205 203 204 204 203 203 201 201 201 200 200 199 202 205 206 210 215 219 224 227 229 230 228 224 224 234 236 226 224 223
324 326 329 330 329 327 326 326 325 326 326 327 327 327 327 326 325 326 324 315 303 290 277 266 254 241 230 222 216 211 208 206 205 204 204 204 204 204 204 204 204 203 204 203 203 205 206 204 203 201 200 201 203 202 202 202 203 204 205 204 204 204 205 205 203 202 202 204 205 206 209 213 214 215 216 219 224 226 227 226 224 227 236 249 247 231 224 222
326 329 331 331 329 327 327 327 328 329 329 329 329 329 329 329 328 327 324 317 306 290 276 266 256 243 231 222 216 211 207 205 204 203 203 203 203 204 204 204 204 203 203 204 205 207 206 204 204 202 201 203 204 203 203 203 204 205 205 204 204 205 206 205 204 202 202 203 207 212 213 214 214 214 214 217 221 223 224 224 226 233 239 244 246 236 226 222
329 332 332 330 329 328 328 329 331 331 332 332 331 331 331 331 330 328 323 315 304 289 277 267 257 245 233 222 216 211 207 204 203 203 202 202 202 203 203 203 204 203 202 204 206 208 206 204 205 203 203 205 205 204 203 203 205 206 204 203 204 206 206 205 205 204 204 205 207 208 208 208 209 209 211 214 218 220 221 223 225 232 237 240 243 237 225 221
331 333 332 330 330 329 330 332 333 334 334 334 334 333 333 332 331 328 321 310 300 288 276 267 258 248 234 223 215 210 207 204 203 202 201 202 202 201 201 202 204 202 201 204 206 205 204 203 204 205 205 206 206 204 203 205 207 206 204 205 206 206 206 205 205 206 209 211 212 209 206 208 207 205 208 211 215 218 221 224 226 230 235 235 234 230 225 223
333 332 332 331 331 331 332 334 335 336 336 336 336 335 334 334 331 327 318 303 292 282 272 265 258 250 236 223 215 210 207 204 203 202 201 202 202 201 201 202 203 202 202 204 204 203 203 201 203 206 206 206 206 204 204 205 206 205 204 206 208 207 206 206 205 205 208 210 212 211 211 211 207 203 205 209 212 217 221 225 228 230 231 227 221 224 230 229
333 332 332 332 333 333 334 336 337 337 338 338 338 336 335 334 331 325 315 297 283 274 265 259 254 250 239 224 215 210 207 204 203 202 201 202 202 202 202 202 202 203 203 204 204 203 202 200 202 206 205 205 205 204 205 205 204 204 203 205 208 207 207 207 204 204 206 205 206 208 210 210 207 205 207 208 209 214 219 222 224 226 225 218 214 221 229 230
333 333 333 333 334 335 336 338 339 339 339 340 340 338 335 334 331 323 312 294 278 267 258 252 248 245 238 227 218 211 207 204 203 202 202 202 202 202 203 202 203 203 203 203 204 203 202 200 203 206 205 204 204 204 205 204 204 204 204 205 207 207 207 207 205 204 205 204 204 204 207 209 206 204 207 207 206 211 217 220 222 224 220 216 219 225 227 229
333 333 334 335 336 337 338 339 340 340 341 342 341 338 335 333 331 322 309 292 272 259 252 247 244 243 239 231 222 213 207 205 203 202 202 202 203 203 203 203 204 204 203 203 203 203 201 200 203 206 205 204 205 205 204 203 204 204 204 205 207 207 207 207 206 205 204 204 205 204 207 209 205 202 205 206 204 207 213 217 219 221 220 221 227 231 228 228
333 334 335 336 337 338 339 340 341 341 342 343 342 339 335 332 329 321 306 289 264 250 246 243 242 242 239 235 226 214 209 206 204 203 202 202 203 204 204 204 204 205 204 204 204 204 202 202 203 204 204 204 205 206 204 203 204 205 205 206 206 206 207 208 207 206 205 205 205 205 207 209 205 202 204 205 206 208 209 212 216 220 222 223 225 227 226 227
334 335 336 337 338 340 340 341 341 342 344 344 342 340 335 331 328 319 304 286 258 243 240 239 239 239 237 236 229 217 211 208 206 205 204 203 203 204 205 205 206 205 204 204 206 206 205 205 205 206 206 204 205 207 205 204 204 205 207 208 207 207 207 208 208 207 208 207 206 206 207 208 206 203 204 206 208 210 210 211 216 220 222 223 223 224 225 225
335 336 337 338 339 341 341 341 342 343 345 345 343 339 334 330 328 319 303 282 254 239 235 235 235 235 234 234 229 220 213 210 208 207 206 204 204 205 205 206 206 205 204 205 206 206 206 206 206 207 208 205 206 209 207 206 206 206 208 208 207 209 209 208 209 209 209 208 206 207 207 207 207 204 204 205 207 210 212 212 214 217 220 222 223 223 224 223
335 336 338 338 340 341 342 342 343 344 345 345 343 339 334 331 327 318 302 280 253 236 232 232 231 230 229 229 228 222 214 211 210 209 208 206 205 206 206 206 206 206 206 206 207 207 207 206 205 206 208 205 206 211 209 208 207 207 208 208 207 209 209 209 210 210 211 210 209 209 209 209 210 206 203 204 205 209 212 213 214 216 219 222 224 226 227 226
336 337 338 339 341 342 342 343 344 345 345 345 343 340 335 331 327 317 301 280 257 236 228 227 227 227 227 227 227 225 219 214 211 210 210 208 207 207 206 206 207 207 207 207 207 208 208 207 205 205 207 205 205 211 211 209 209 208 208 208 207 209 210 209 211 211 212 213 212 212 212 213 214 209 206 207 208 208 210 213 217 219 221 224 226 229 230 228
336 337 339 340 341 342 343 344 345 346 345 344 343 339 335 331 326 318 304 283 259 239 229 226 225 223 224 225 225 227 225 220 214 212 211 210 209 208 207 207 207 207 208 208 208 208 207 206 205 205 206 206 205 209 211 210 210 210 209 208 208 209 210 210 211 211 212 214 215 215 215 216 217 214 210 211 211 212 213 216 220 219 218 222 225 227 229 228
337 338 339 340 342 343 344 345 345 345 345 343 342 339 334 330 326 319 306 287 261 241 232 228 225 222 222 224 226 229 229 225 220 217 214 211 210 208 207 207 208 208 210 209 209 209 208 206 206 205 206 208 207 209 211 211 211 211 210 209 208 209 211 212 212 212 213 214 215 216 217 217 218 217 216 215 214 215 217 219 222 223 219 218 220 221 224 227
337 339 339 340 342 343 344 346 345 344 344 343 341 338 333 328 325 319 307 290 266 247 235 228 225 223 222 224 227 230 231 227 222 219 216 212 211 210 208 208 208 209 210 210 210 210 209 207 207 206 206 209 209 209 212 213 212 212 212 210 209 210 212 213 213 213 215 216 216 217 217 217 218 219 220 222 220 218 219 221 222 224 224 221 219 217 220 226
337 339 339 340 341 343 345 346 345 343 343 341 340 337 331 326 323 317 306 290 268 251 241 230 224 222 221 222 225 228 230 228 223 218 215 213 213 213 211 210 210 210 210 210 210 210 209 207 207 207 207 209 210 209 211 213 213 213 213 212 211 212 214 214 213 214 215 217 218 219 219 218 219 218 219 223 223 220 220 225 225 224 225 226 223 219 218 223
337 338 339 340 341 343 344 345 344 343 341 340 339 335 329 325 321 315 305 291 270 251 243 234 227 223 222 223 225 228 229 229 225 220 215 213 213 214 213 212 212 212 211 211 210 210 210 208 208 208 208 209 211 211 212 213 213 213 213 214 213 213 214 214 214 215 215 216 218 220 219 218 218 218 218 221 223 220 219 223 226 225 226 228 229 227 223 224
337 338 340 341 342 342 344 345 344 342 341 339 337 333 327 322 318 312 305 292 272 253 242 236 231 228 227 227 228 230 231 231 229 224 218 213 212 213 214 213 213 213 213 212 211 211 210 208 208 209 209 209 211 213 213 212 213 213 213 215 215 214 215 216 216 216 216 217 219 219 219 218 217 218 218 220 222 221 220 222 225 226 226 227 231 235 237 237
338 339 340 341 342 342 342 343 343 341 340 338 335 330 325 320 314 310 303 290 273 255 242 236 233 230 229 229 231 233 233 232 232 229 224 218 214 215 216 215 214 214 214 213 213 212 210 209 209 210 211 211 211 213 213 212 213 213 213 215 216 215 215 215 216 216 216 217 219 219 219 218 218 218 219 219 220 221 221 223 226 229 228 226 228 234 241 244
338 339 340 340 341 341 341 342 342 340 339 337 333 327 321 316 311 306 299 288 272 257 244 236 233 231 230 230 232 234 235 235 233 231 227 223 219 216 217 218 216 216 215 214 214 213 212 211 211 211 212 212 212 213 214 214 214 215 214 215 217 216 216 216 216 216 216 217 218 219 218 218 218 219 220 220 220 221 221 221 223 228 231 229 227 228 234 240
339 339 340 340 340 340 340 341 341 339 337 335 331 325 319 313 308 302 295 284 270 257 245 237 234 232 231 231 232 234 235 236 236 234 230 226 222 219 218 219 219 218 218 216 215 215 214 213 212 213 213 213 212 213 215 215 214 215 216 217 218 219 219 219 219 218 218 219 220 220 220 219 219 219 220 221 220 220 222 220 217 220 226 226 224 224 227 231
339 339 339 339 339 339 339 340 340 339 337 334 329 323 318 311 304 297 289 279 267 255 245 237 234 233 233 232 232 234 235 236 237 238 235 231 227 222 219 219 219 219 219 218 216 215 215 214 214 214 214 214 213 213 215 215 215 215 216 217 218 219 220 220 220 220 220 222 223 222 222 221 220 220 221 222 220 220 221 219 214 213 216 215 213 211 213 216
338 339 339 339 338 337 338 338 339 339 337 334 329 323 316 307 300 291 282 273 263 252 243 238 234 233 234 233 232 233 235 237 239 240 240 237 232 226 223 222 221 220 221 219 217 216 216 215 215 215 216 215 214 214 215 216 216 216 217 218 218 220 221 221 220 220 220 221 222 222 221 221 220 219 220 221 221 221 222 220 216 215 217 216 212 207 205 208
Height
10928 10927 10927 10927 10927 10926 10926 10926 10926 10926 10926 10926 10926 10926 10926 10926 10927 10927 10928 10928 10928 10929 10930 10930 10931 10932 10933 10935 10938 10940 10942 10944 10947 10950 10953 10957 10960 10963 10967 10970 10973 10976 10979 10982 10985 10989 10993 10996 11000 11002 11005 11007 11009 11010 11010 11012 11014 11015 11017 11018 11018 11019 11019 11019 11019 11019 11020 11020 11021 11021 11022 11022 11022 11022 11022 11022 11021 11021 11019 11018 11016 11015 11013 11010 11008 11006 11003 11001
10926 10926 10926 10925 10925 10925 10924 10924 10924 10923 10923 10923 10923 10923 10923 10924 10924 10924 10925 10925 10926 10926 10927 10928 10929 10929 10930 10932 10934 10936 10939 10941 10943 10946 10949 10953 10957 10960 10963 10967 10970 10973 10976 10979 10983 10987 10991 10995 10998 11001 11003 11006 11008 11010 11009 11009 11011 11013 11016 11017 11017 11018 11018 11019 11019 11020 11020 11019 11020 11021 11021 11022 11022 11023 11022 11022 11022 11021 11020 11019 11018 11016 11014 11012 11010 11008 11005 11002
10925 10924 10924 10923 10923 10922 10922 10922 10921 10921 10921 10921 10920 10920 10920 10920 10921 10921 10922 10922 10923 10924 10924 10925 10926 10927 10928 10929 10931 10933 10935 10937 10939 10941 10945 10950 10953 10956 10960 10964 10967 10969 10972 10976 10980 10984 10989 10993 10996 10999 11001 11004 11006 11007 11007 11006 11009 11012 11015 11016 11016 11017 11018 11019 11019 11020 11020 11019 11019 11020 11021 11022 11022 11023 11023 11023 11022 11022 11021 11020 11019 11017 11015 11013 11011 11009 11006 11004
10923 10922 10922 10921 10920 10920 10919 10919 10918 10918 10918 10917 10917 10917 10917 10917 10917 10918 10919 10919 10920 10921 10921 10922 10923 10924 10925 10926 10928 10929 10931 10934 10935 10938 10942 10946 10950 10953 10956 10960 10963 10965 10969 10974 10978 10982 10986 10990 10994 10997 10999 11002 11004 11004 11004 11005 11007 11011 11013 11014 11016 11017 11018 11019 11020 11021 11020 11019 11019 11019 11020 11022 11022 11023 11023 11023 11023 11022 11021 11020 11019 11018 11016 11014 11012 11010 11008 11006
10920 10920 10919 10918 10918 10917 10917 10916 10915 10915 10915 10914 10914 10914 10914 10913 10914 10914 10915 10916 10916 10917 10918 10919 10919 10920 10922 10923 10924 10925 10928 10930 10931 10935 10939 10942 10945 10949 10952 10955 10958 10962 10966 10971 10975 10979 10983 10987 10991 10994 10998 11001 11002 11002 11003 11005 11007 11010 11011 11013 11016 11017 11017 11019 11021 11021 11021 11019 11019 11019 11020 11021 11022 11022 11023 11023 11023 11022 11022 11021 11020 11019 11017 11016 11014 11012 11010 11007
10918 10918 10917 10916 10915 10914 10914 10913 10913 10912 10912 10912 10911 10910 10910 10910 10910 10910 10911 10911 10912 10913 10914 10915 10915 10917 10918 10919 10921 10922 10924 10925 10926 10932 10935 10938 10941 10944 10948 10951 10954 10958 10963 10968 10972 10976 10980 10985 10988 10992 10995 10997 10998 10999 11002 11004 11006 11008 11010 11013 11017 11018 11018 11019 11021 11021 11019 11018 11018 11019 11020 11021 11021 11022 11023 11023 11023 11023 11023 11022 11021 11020 11018 11017 11015 11013 11011 11009
10916 10915 10914 10914 10912 10912 10911 10910 10910 10909 10909 10908 10907 10907 10906 10906 10906 10906 10906 10906 10907 10908 10909 10910 10910 10912 10913 10915 10917 10918 10921 10921 10923 10928 10930 10933 10936 10939 10943 10947 10951 10955 10960 10965 10969 10973 10978 10982 10986 10989 10992 10994 10996 10998 11001 11003 11005 11008 11010 11012 11016 11019 11019 11020 11021 11019 11017 11017 11017 11017 11018 11020 11021 11022 11023 11023 11023 11023 11023 11023 11022 11021 11019 11018 11017 11015 11013 11011
10913 10913 10912 10910 10909 10908 10907 10907 10906 10905 10905 10904 10904 10903 10902 10902 10902 10901 10901 10901 10902 10902 10903 10904 10905 10907 10908 10910 10912 10914 10918 10917 10917 10922 10925 10928 10931 10933 10938 10943 10948 10952 10956 10961 10966 10970 10974 10978 10982 10985 10989 10992 10995 10995 10998 11002 11004 11006 11009 11012 11015 11018 11017 11018 11017 11014 11015 11016 11014 11014 11015 11018 11020 11021 11022 11023 11023 11023 11023 11023 11022 11022 11020 11019 11018 11017 11015 11012
10910 10909 10908 10907 10906 10905 10904 10903 10902 10901 10900 10899 10899 10898 10897 10897 10896 10896 10896 10895 10896 10895 10896 10897 10899 10901 10902 10904 10906 10909 10915 10911 10911 10918 10921 10923 10926 10929 10934 10939 10944 10948 10953 10958 10962 10966 10970 10974 10978 10982 10985 10989 10991 10992 10995 11000 11002 11005 11009 11013 11016 11015 11013 11013 11012 11010 11012 11012 11011 11012 11012 11016 11019 11020 11022 11022 11023 11023 11024 11024 11023 11022 11021 11020 11019 11018 11016 11014
10907 10906 10905 10904 10902 10901 10900 10898 10897 10896 10895 10894 10893 10893 10892 10891 10891 10890 10890 10889 10889 10888 10889 10889 10892 10893 10895 10899 10900 10905 10910 10904 10905 10913 10914 10918 10921 10924 10929 10934 10939 10944 10948 10953 10956 10961 10966 10970 10974 10978 10981 10985 10987 10989 10993 10997 11000 11004 11009 11012 11012 11010 11009 11009 11009 11009 11011 11011 11011 11012 11012 11015 11018 11019 11021 11022 11023 11023 11024 11024 11024 11023 11022 11021 11021 11020 11018 11016
10904 10903 10901 10900 10898 10897 10895 10894 10892 10891 10889 10888 10887 10886 10886 10885 10884 10883 10883 10882 10881 10881 10880 10881 10883 10885 10888 10891 10893 10902 10904 10896 10899 10905 10907 10913 10916 10919 10924 10929 10934 10939 10944 10948 10951 10957 10962 10966 10970 10974 10978 10981 10984 10986 10989 10994 10997 11001 11004 11005 11007 11007 11007 11008 11009 11009 11011 11011 11012 11013 11013 11015 11017 11018 11020 11021 11022 11023 11024 11024 11024 11024 11023 11022 11022 11021 11020 11018
10901 10899 10897 10895 10894 10892 10890 10889 10887 10885 10884 10882 10881 10880 10878 10877 10877 10876 10875 10873 10872 10872 10871 10872 10873 10876 10879 10882 10888 10896 10893 10886 10892 10898 10901 10907 10911 10914 10919 10923 10929 10934 10938 10943 10947 10952 10957 10961 10966 10969 10973 10977 10980 10982 10986 10991 10994 10996 10997 11000 11003 11005 11006 11007 11008 11007 11009 11010 11012 11013 11014 11015 11016 11018 11019 11020 11022 11023 11023 11024 11024 11024 11023 11023 11023 11022 11021 11020
10897 10895 10893 10891 10889 10887 10885 10884 10882 10880 10878 10876 10874 10873 10871 10869 10868 10867 10866 10864 10863 10861 10861 10861 10862 10865 10869 10874 10881 10884 10881 10879 10886 10892 10896 10901 10905 10909 10913 10918 10923 10928 10933 10938 10943 10947 10952 10956 10960 10965 10969 10973 10976 10979 10984 10989 10991 10991 10992 10995 10999 11000 11002 11006 11006 11006 11007 11009 11011 11013 11014 11015 11016 11017 11018 11019 11021 11022 11023 11023 11024 11024 11023 11023 11023 11023 11022 11021
10893 10891 10889 10887 10885 10882 10880 10878 10876 10874 10872 10870 10868 10865 10863 10861 10859 10857 10855 10854 10852 10851 10850 10850 10852 10854 10858 10864 10870 10872 10873 10875 10879 10885 10889 10894 10899 10903 10908 10913 10917 10922 10928 10933 10937 10941 10945 10950 10956 10960 10963 10967 10971 10975 10980 10985 10987 10989 10990 10993 10995 10997 11000 11004 11004 11005 11005 11007 11010 11011 11013 11015 11016 11017 11018 11019 11020 11021 11022 11023 11023 11024 11024 11024 11024 11024 11023 11022
10888 10886 10884 10882 10880 10877 10875 10873 10870 10868 10865 10863 10860 10858 10856 10853 10850 10847 10844 10842 10840 10839 10839 10839 10841 10843 10847 10853 10858 10862 10866 10867 10872 10878 10882 10887 10891 10896 10902 10907 10912 10917 10922 10927 10932 10935 10939 10945 10950 10953 10958 10963 10968 10972 10977 10980 10982 10986 10989 10991 10992 10995 10998 11000 11001 11002 11003 11005 11008 11010 11012 11014 11015 11016 11017 11018 11019 11020 11021 11022 11023 11023 11024 11024 11024 11024 11024 11023
10884 10882 10880 10877 10875 10872 10870 10867 10864 10861 10859 10856 10853 10850 10847 10844 10841 10837 10833 10831 10829 10827 10827 10828 10829 10832 10836 10841 10846 10852 10857 10860 10865 10870 10875 10880 10884 10890 10896 10901 10906 10911 10916 10921 10926 10929 10933 10940 10944 10949 10955 10960 10964 10968 10971 10975 10978 10981 10985 10987 10988 10991 10994 10995 10997 10999 11000 11003 11006 11009 11011 11012 11014 11015 11016 11017 11018 11019 11020 11021 11022 11023 11024 11024 11024 11024 11024 11024
10879 10877 10875 10872 10869 10867 10864 10861 10858 10855 10852 10849 10845 10841 10838 10834 10830 10826 10823 10820 10817 10816 10815 10816 10818 10821 10824 10828 10835 10842 10847 10853 10857 10861 10866 10872 10878 10883 10889 10894 10899 10905 10910 10916 10919 10923 10930 10937 10942 10947 10952 10955 10959 10962 10965 10970 10973 10976 10979 10982 10983 10986 10989 10992 10994 10996 10998 11001 11004 11007 11009 11011 11013 11015 11016 11017 11017 11018 11019 11020 11022 11022 11023 11023 11023 11024 11024 11024
10874 10872 10870 10867 10864 10861 10858 10855 10852 10848 10845 10841 10837 10833 10829 10824 10820 10816 10812 10809 10807 10805 10804 10805 10807 10810 10813 10817 10824 10830 10836 10841 10845 10851 10858 10864 10870 10875 10881 10888 10893 10899 10904 10909 10912 10919 10926 10931 10937 10943 10949 10952 10955 10957 10959 10964 10968 10970 10975 10978 10980 10984 10987 10990 10992 10994 10996 10999 11002 11005 11008 11010 11012 11014 11015 11016 11016 11017 11018 11019 11021 11021 11022 11023 11023 11024 11024 11024
10869 10867 10865 10862 10859 10856 10852 10849 10845 10841 10837 10833 10829 10825 10820 10815 10810 10806 10802 10799 10796 10794 10793 10794 10796 10799 10802 10807 10814 10819 10825 10829 10834 10841 10849 10856 10862 10867 10874 10881 10886 10892 10897 10902 10907 10914 10919 10924 10931 10938 10942 10947 10950 10952 10954 10958 10962 10965 10971 10975 10978 10981 10984 10987 10990 10993 10995 10998 11001 11004 11007 11009 11011 11012 11014 11015 11015 11016 11017 11018 11019 11020 11021 11022 11022 11023 11024 11024
10865 10863 10860 10857 10854 10850 10847 10843 10838 10834 10830 10826 10821 10816 10811 10806 10801 10796 10792 10788 10785 10783 10783 10783 10785 10789 10792 10797 10802 10808 10814 10820 10826 10834 10841 10847 10853 10859 10867 10873 10879 10885 10891 10896 10902 10908 10913 10920 10927 10931 10934 10939 10943 10946 10949 10954 10958 10962 10967 10971 10974 10978 10982 10985 10988 10992 10994 10997 11000 11003 11006 11008 11009 11010 11012 11013 11014 11015 11015 11016 11017 11018 11020 11021 11021 11022 11023 11024
10861 10858 10855 10852 10849 10845 10841 10836 10832 10827 10823 10818 10813 10808 10802 10797 10792 10787 10782 10779 10775 10773 10773 10773 10775 10778 10782 10786 10791 10797 10805 10812 10819 10826 10832 10839 10845 10851 10858 10865 10872 10879 10884 10889 10895 10902 10908 10915 10921 10922 10926 10932 10936 10940 10945 10950 10954 10957 10963 10967 10970 10974 10978 10983 10989 10992 10993 10996 11000 11003 11006 11008 11009 11009 11010 11011 11012 11013 11013 11014 11015 11016 11018 11019 11020 11022 11023 11023
10856 10854 10851 10847 10844 10839 10835 10830 10825 10820 10816 10811 10805 10799 10794 10788 10783 10778 10774 10769 10766 10763 10762 10763 10765 10768 10772 10776 10781 10788 10795 10802 10809 10817 10824 10830 10836 10843 10850 10857 10865 10872 10877 10883 10890 10896 10903 10909 10912 10915 10920 10926 10930 10935 10939 10944 10948 10953 10958 10962 10966 10971 10975 10981 10987 10991 10993 10996 10999 11000 11003 11007 11007 11007 11007 11009 11010 11010 11010 11011 11013 11014 11016 11017 11018 11020 11021 11023
10852 10849 10846 10842 10838 10834 10829 10824 10819 10814 10809 10803 10798 10792 10785 10780 10775 10770 10765 10761 10757 10754 10753 10753 10755 10758 10761 10766 10772 10779 10785 10793 10800 10807 10815 10821 10828 10836 10844 10851 10858 10864 10871 10878 10884 10890 10895 10899 10902 10907 10914 10919 10924 10928 10934 10942 10946 10949 10954 10958 10963 10968 10972 10977 10982 10986 10989 10992 10994 10995 10999 11002 11003 11003 11005 11007 11007 11007 11008 11009 11011 11013 11014 11015 11017 11018 11020 11021
10848 10845 10842 10838 10833 10828 10823 10818 10812 10807 10802 10796 10790 10784 10778 10771 10766 10762 10757 10752 10748 10745 10744 10745 10746 10748 10752 10757 10762 10769 10776 10784 10791 10799 10807 10813 10822 10831 10837 10844 10851 10857 10865 10872 10878 10883 10887 10891 10893 10899 10906 10912 10917 10922 10931 10937 10940 10944 10949 10953 10959 10964 10968 10973 10978 10981 10984 10987 10988 10991 10995 10999 10999 11000 11003 11004 11004 11005 11007 11008 11009 11011 11012 11013 11015 11016 11018 11020
10844 10841 10837 10833 10828 10823 10818 10812 10807 10801 10795 10789 10783 10776 10770 10764 10758 10754 10749 10745 10741 10738 10737 10737 10738 10740 10743 10747 10752 10759 10766 10773 10782 10791 10798 10805 10815 10823 10829 10836 10844 10851 10859 10865 10870 10875 10880 10882 10884 10893 10902 10907 10911 10918 10926 10930 10934 10940 10942 10947 10955 10960 10964 10969 10974 10977 10980 10983 10985 10988 10992 10995 10996 10998 11000 11001 11002 11004 11006 11007 11008 11009 11009 11011 11013 11015 11016 11018
10839 10836 10832 10828 10823 10818 10812 10806 10801 10795 10789 10783 10776 10769 10762 10756 10751 10746 10742 10737 10734 10731 10730 10730 10730 10732 10735 10738 10743 10750 10756 10766 10775 10782 10788 10798 10808 10815 10821 10830 10837 10843 10850 10856 10862 10868 10871 10873 10880 10891 10899 10901 10905 10914 10920 10924 10930 10934 10936 10945 10953 10957 10962 10967 10971 10974 10976 10979 10982 10985 10989 10991 10992 10995 10997 10998 10999 11002 11004 11005 11006 11007 11007 11009 11011 11013 11014 11016
10835 10831 10827 10822 10817 10812 10807 10801 10795 10789 10783 10776 10770 10763 10755 10749 10744 10739 10735 10731 10727 10725 10724 10723 10724 10726 10728 10731 10736 10742 10751 10761 10767 10771 10780 10790 10798 10805 10814 10823 10829 10835 10844 10852 10859 10863 10863 10868 10878 10886 10891 10898 10906 10912 10914 10919 10924 10926 10931 10941 10947 10951 10958 10963 10966 10969 10972 10976 10978 10981 10984 10987 10989 10991 10993 10995 10996 10999 11001 11002 11004 11005 11005 11006 11009 11011 11012 11014
10831 10826 10822 10817 10812 10806 10801 10795 10789 10783 10777 10770 10764 10757 10750 10743 10737 10733 10728 10724 10721 10720 10718 10718 10719 10720 10722 10725 10729 10735 10742 10748 10755 10765 10775 10782 10789 10797 10804 10811 10819 10829 10839 10847 10853 10854 10856 10864 10871 10877 10887 10897 10901 10904 10909 10915 10919 10921 10928 10936 10941 10947 10954 10957 10961 10965 10969 10972 10975 10977 10979 10983 10986 10988 10990 10992 10993 10995 10997 10998 11000 11002 11003 11004 11007 11009 11011 11013
10826 10821 10817 10812 10806 10801 10795 10790 10783 10777 10771 10764 10758 10751 10744 10737 10731 10727 10723 10719 10717 10715 10714 10714 10714 10715 10717 10719 10723 10728 10734 10741 10750 10761 10769 10776 10784 10790 10796 10806 10816 10826 10832 10838 10842 10842 10845 10855 10864 10874 10884 10888 10891 10897 10904 10909 10913 10917 10924 10932 10938 10943 10947 10951 10956 10960 10964 10968 10971 10973 10976 10979 10982 10984 10986 10987 10988 10990 10992 10995 10997 11000 11001 11002 11005 11007 11009 11011
10821 10817 10812 10807 10801 10795 10789 10784 10778 10771 10765 10758 10752 10745 10738 10732 10726 10721 10717 10715 10713 10711 10710 10710 10710 10711 10712 10714 10718 10722 10729 10737 10746 10753 10759 10769 10777 10784 10793 10804 10811 10817 10825 10832 10834 10834 10843 10856 10865 10874 10880 10882 10887 10892 10897 10904 10909 10913 10921 10930 10936 10939 10943 10948 10952 10956 10959 10963 10967 10970 10973 10976 10978 10980 10982 10983 10985 10987 10990 10992 10994 10996 10998 11001 11003 11005 11006 11009
10816 10812 10807 10802 10796 10790 10784 10778 10771 10765 10759 10752 10746 10739 10732 10727 10722 10716 10712 10710 10709 10708 10707 10706 10707 10707 10709 10711 10714 10718 10724 10730 10736 10744 10753 10762 10768 10777 10789 10797 10801 10810 10821 10826 10826 10833 10849 10861 10866 10871 10874 10877 10881 10887 10896 10902 10903 10907 10917 10927 10931 10933 10938 10944 10949 10952 10955 10958 10962 10966 10969 10972 10974 10976 10979 10980 10982 10985 10987 10989 10991 10993 10996 10998 11001 11002 11004 11006
10812 10807 10802 10797 10791 10785 10778 10772 10765 10759 10753 10747 10740 10734 10727 10721 10717 10713 10709 10706 10705 10704 10703 10703 10704 10704 10706 10708 10710 10714 10718 10723 10730 10738 10747 10755 10761 10770 10780 10787 10795 10805 10813 10814 10817 10831 10845 10852 10857 10862 10866 10870 10875 10885 10893 10894 10895 10905 10917 10923 10924 10927 10933 10940 10945 10948 10951 10954 10959 10962 10965 10967 10970 10973 10975 10977 10980 10982 10985 10987 10988 10990 10993 10996 10998 11000 11002 11004
10807 10803 10798 10793 10787 10780 10773 10766 10760 10754 10747 10741 10734 10728 10723 10717 10712 10708 10706 10703 10701 10701 10701 10701 10701 10701 10703 10704 10707 10710 10713 10718 10725 10733 10741 10748 10756 10766 10773 10779 10788 10798 10801 10803 10812 10826 10834 10842 10849 10853 10857 10862 10869 10878 10881 10882 10890 10903 10912 10916 10918 10923 10929 10935 10940 10944 10947 10951 10955 10958 10961 10963 10966 10969 10972 10974 10977 10980 10982 10984 10985 10988 10990 10993 10996 10998 10999 11001
10803 10798 10794 10788 10782 10775 10769 10762 10755 10748 10742 10736 10729 10722 10717 10713 10708 10703 10701 10700 10698 10697 10698 10698 10698 10699 10700 10702 10704 10706 10708 10714 10721 10728 10735 10742 10752 10761 10766 10772 10781 10787 10791 10798 10809 10818 10824 10833 10838 10838 10843 10850 10859 10866 10869 10875 10885 10893 10900 10905 10909 10917 10923 10928 10934 10937 10940 10945 10949 10954 10958 10960 10963 10965 10967 10970 10973 10976 10978 10980 10982 10984 10987 10990 10993 10995 10996 10998
10798 10794 10789 10783 10777 10771 10764 10757 10750 10744 10738 10731 10725 10717 10711 10708 10704 10700 10697 10696 10695 10695 10695 10695 10696 10696 10698 10699 10701 10702 10706 10712 10717 10723 10730 10738 10746 10751 10756 10765 10772 10776 10783 10794 10804 10812 10821 10828 10828 10828 10834 10842 10848 10854 10861 10871 10881 10887 10893 10898 10903 10910 10915 10920 10926 10929 10934 10939 10944 10947 10951 10953 10957 10960 10962 10965 10969 10972 10975 10977 10979 10981 10984 10987 10989 10992 10994 10995
10794 10790 10784 10779 10773 10766 10760 10753 10746 10739 10733 10726 10720 10713 10706 10703 10700 10696 10694 10693 10692 10693 10693 10693 10694 10694 10696 10697 10698 10700 10704 10707 10712 10717 10723 10731 10737 10741 10748 10757 10762 10767 10777 10786 10793 10802 10811 10813 10812 10818 10829 10837 10842 10848 10857 10867 10874 10880 10887 10891 10895 10902 10908 10913 10919 10923 10929 10934 10937 10940 10942 10946 10951 10955 10957 10960 10964 10966 10970 10974 10976 10979 10981 10983 10986 10988 10991 10993
10790 10785 10780 10774 10768 10762 10755 10749 10742 10735 10728 10722 10715 10709 10703 10699 10696 10693 10691 10690 10690 10690 10690 10690 10691 10693 10694 10694 10695 10698 10700 10703 10707 10711 10715 10721 10727 10735 10744 10750 10754 10762 10773 10782 10788 10795 10799 10798 10802 10814 10823 10831 10838 10846 10855 10864 10870 10877 10881 10881 10885 10893 10900 10907 10913 10919 10924 10928 10931 10934 10937 10941 10947 10950 10951 10954 10958 10961 10965 10969 10973 10975 10978 10980 10983 10985 10988 10991
10785 10781 10775 10769 10763 10757 10750 10744 10738 10731 10724 10717 10710 10704 10699 10695 10693 10690 10688 10688 10687 10687 10687 10688 10689 10690 10692 10693 10694 10696 10697 10700 10703 10706 10710 10716 10723 10732 10739 10745 10751 10762 10774 10784 10790 10796 10802 10804 10812 10821 10825 10831 10840 10845 10851 10859 10865 10871 10872 10874 10882 10889 10895 10902 10908 10914 10918 10922 10927 10930 10932 10937 10942 10944 10945 10949 10953 10956 10960 10965 10968 10971 10974 10977 10980 10983 10985 10988
10781 10776 10771 10764 10758 10752 10745 10739 10733 10726 10720 10714 10706 10700 10695 10691 10689 10687 10685 10685 10685 10685 10685 10685 10686 10688 10690 10691 10692 10693 10695 10697 10700 10703 10708 10713 10720 10725 10730 10738 10747 10759 10770 10777 10782 10789 10796 10801 10811 10819 10824 10834 10841 10842 10847 10854 10858 10862 10864 10872 10884 10888 10893 10899 10903 10906 10910 10915 10920 10922 10925 10931 10935 10937 10939 10944 10948 10951 10955 10960 10963 10967 10971 10974 10977 10979 10982 10985
10777 10772 10766 10760 10753 10747 10741 10734 10728 10721 10716 10710 10704 10697 10692 10688 10686 10684 10683 10682 10682 10683 10683 10683 10684 10686 10687 10689 10689 10691 10692 10693 10696 10699 10703 10709 10714 10717 10724 10735 10746 10756 10764 10769 10775 10782 10787 10793 10805 10813 10819 10831 10837 10836 10841 10847 10850 10854 10858 10867 10876 10879 10885 10894 10898 10901 10905 10909 10913 10916 10920 10924 10926 10930 10936 10940 10943 10946 10951 10956 10959 10963 10967 10970 10973 10975 10978 10981
10773 10768 10762 10755 10749 10742 10736 10729 10723 10716 10711 10706 10700 10694 10689 10686 10683 10682 10680 10680 10680 10680 10680 10681 10683 10684 10686 10687 10688 10688 10689 10690 10692 10695 10699 10704 10708 10714 10725 10735 10744 10753 10758 10764 10771 10775 10779 10788 10799 10806 10812 10822 10827 10828 10832 10838 10843 10848 10854 10862 10868 10871 10877 10885 10888 10894 10900 10904 10907 10910 10914 10916 10918 10926 10933 10935 10939 10945 10950 10955 10957 10959 10963 10966 10969 10972 10975 10978
10768 10763 10757 10750 10744 10737 10731 10724 10717 10711 10706 10700 10695 10690 10686 10683 10681 10679 10678 10677 10677 10677 10678 10680 10681 10682 10684 10685 10686 10686 10687 10689 10691 10693 10697 10701 10707 10717 10726 10732 10739 10745 10747 10751 10756 10758 10766 10780 10791 10800 10807 10812 10814 10816 10822 10829 10835 10841 10847 10854 10860 10865 10871 10875 10878 10884 10891 10894 10898 10902 10906 10909 10913 10921 10927 10930 10938 10944 10947 10952 10954 10956 10960 10964 10967 10970 10973 10976
10763 10758 10751 10746 10740 10733 10726 10719 10712 10706 10701 10696 10691 10686 10683 10680 10678 10676 10675 10674 10674 10675 10676 10677 10678 10680 10682 10683 10684 10684 10686 10689 10692 10693 10696 10701 10708 10714 10719 10724 10730 10732 10734 10741 10748 10756 10770 10783 10789 10796 10802 10805 10809 10815 10820 10824 10828 10833 10838 10846 10855 10860 10864 10867 10872 10879 10881 10882 10886 10891 10896 10901 10907 10917 10924 10929 10936 10941 10944 10949 10952 10953 10958 10962 10965 10968 10972 10975
10759 10753 10747 10741 10735 10729 10722 10715 10707 10702 10698 10693 10688 10683 10680 10677 10675 10674 10673 10672 10672 10672 10673 10674 10676 10677 10679 10680 10681 10683 10685 10687 10689 10691 10695 10699 10704 10707 10710 10716 10719 10721 10728 10739 10750 10761 10770 10777 10783 10791 10797 10799 10806 10813 10815 10816 10821 10826 10832 10842 10851 10855 10856 10860 10867 10873 10875 10878 10883 10884 10887 10895 10904 10913 10922 10927 10932 10939 10944 10947 10948 10950 10955 10960 10963 10966 10970 10973
10755 10750 10744 10737 10731 10725 10718 10711 10704 10698 10694 10690 10685 10681 10677 10675 10672 10671 10670 10669 10669 10669 10670 10672 10673 10675 10676 10678 10679 10680 10682 10684 10686 10689 10692 10696 10700 10702 10706 10710 10712 10717 10725 10734 10744 10750 10757 10767 10777 10784 10789 10791 10795 10799 10800 10805 10816 10825 10833 10841 10847 10848 10849 10853 10860 10864 10868 10874 10876 10875 10881 10894 10902 10910 10918 10921 10926 10936 10940 10939 10941 10946 10952 10956 10958 10962 10966 10970
10748 10744 10739 10732 10726 10719 10714 10708 10701 10695 10690 10686 10682 10678 10674 10672 10670 10668 10667 10667 10667 10667 10667 10669 10670 10672 10673 10675 10677 10677 10679 10681 10684 10687 10690 10692 10695 10698 10701 10704 10708 10713 10718 10725 10733 10739 10748 10761 10769 10773 10778 10783 10788 10792 10796 10804 10813 10820 10826 10832 10834 10837 10840 10846 10853 10857 10861 10864 10862 10862 10874 10887 10895 10904 10911 10913 10919 10928 10932 10931 10933 10940 10947 10952 10955 10959 10964 10968
10743 10737 10732 10726 10720 10713 10708 10703 10697 10692 10687 10682 10678 10675 10671 10669 10667 10665 10664 10664 10664 10664 10665 10665 10667 10668 10670 10672 10673 10674 10676 10679 10682 10684 10687 10690 10692 10694 10695 10698 10702 10707 10712 10719 10726 10731 10741 10752 10757 10763 10770 10776 10781 10785 10792 10801 10806 10810 10818 10822 10824 10829 10836 10842 10845 10847 10850 10851 10850 10856 10869 10879 10888 10898 10903 10906 10913 10921 10924 10925 10928 10933 10941 10950 10956 10960 10962 10964
10740 10733 10727 10721 10715 10709 10703 10697 10692 10687 10682 10678 10674 10671 10668 10666 10663 10662 10661 10661 10661 10661 10662 10663 10664 10666 10667 10669 10670 10671 10673 10676 10679 10681 10684 10686 10688 10690 10692 10694 10698 10701 10706 10711 10715 10722 10733 10741 10747 10753 10759 10765 10771 10777 10784 10792 10797 10803 10810 10810 10811 10817 10822 10824 10826 10829 10836 10839 10842 10851 10862 10872 10884 10893 10896 10900 10907 10914 10916 10919 10923 10928 10937 10949 10956 10957 10956 10957
10737 10730 10723 10717 10712 10707 10701 10694 10689 10682 10677 10674 10671 10668 10665 10662 10660 10659 10658 10658 10658 10658 10659 10660 10661 10663 10664 10666 10667 10668 10671 10673 10675 10677 10679 10682 10684 10687 10689 10691 10694 10697 10700 10703 10709 10718 10728 10735 10740 10745 10750 10758 10768 10774 10779 10785 10790 10796 10800 10800 10802 10807 10809 10809 10811 10817 10824 10829 10834 10844 10854 10868 10882 10889 10891 10896 10903 10907 10909 10913 10919 10925 10932 10943 10950 10953 10953 10954
10734 10727 10721 10715 10708 10703 10698 10692 10686 10680 10674 10670 10666 10663 10661 10659 10657 10656 10655 10655 10655 10655 10656 10657 10658 10660 10661 10663 10664 10666 10668 10670 10671 10673 10675 10678 10680 10683 10685 10688 10690 10693 10695 10699 10707 10715 10721 10727 10733 10739 10744 10752 10761 10767 10771 10777 10784 10789 10792 10794 10798 10801 10801 10804 10811 10819 10827 10832 10839 10849 10859 10871 10881 10883 10886 10892 10897 10901 10903 10909 10918 10923 10927 10933 10941 10947 10953 10955
10731 10724 10718 10712 10705 10699 10694 10688 10683 10677 10671 10665 10661 10659 10657 10654 10653 10652 10651 10651 10651 10652 10653 10654 10655 10657 10658 10660 10662 10663 10665 10667 10668 10669 10671 10674 10676 10679 10682 10683 10685 10688 10690 10695 10701 10705 10710 10718 10726 10730 10735 10743 10751 10756 10760 10767 10773 10777 10779 10783 10787 10790 10794 10803 10814 10826 10835 10841 10845 10851 10859 10867 10872 10875 10879 10884 10890 10894 10898 10905 10914 10919 10921 10924 10931 10938 10944 10949
10728 10721 10714 10708 10701 10694 10689 10684 10678 10672 10666 10661 10656 10654 10652 10650 10649 10648 10648 10648 10648 10648 10649 10650 10652 10654 10655 10657 10659 10661 10662 10663 10665 10666 10667 10670 10672 10675 10678 10679 10681 10684 10686 10689 10693 10696 10702 10711 10717 10720 10727 10735 10742 10747 10751 10756 10762 10766 10772 10778 10782 10786 10792 10802 10812 10820 10825 10828 10832 10838 10846 10853 10857 10862 10868 10874 10880 10886 10891 10898 10907 10911 10913 10918 10925 10931 10937 10943